Flag for Australia Weather past 2 weeks in Darwin, Northern Territory, Australia

Now
86 °F

Passing clouds.


Feels Like: 97 °F
Forecast: 82 / 88 °F
Wind: 15 mph from West

Location: Darwin Airport

Current Time: Jan 31, 2015 at 10:55:32 AM

Latest Report: Jan 31, 2015 at 10:30 AM


Visibility: N/A

Pressure: 29.80 "Hg

Humidity: 75%

Dew point: 77 °F

Location of DarwinLocation

Historic Weather in Darwin — Graph

°F

Darwin temperature yesterday

Maximum temperature yesterday: 88 °F (at 11:30 AM)
Minimum temperature yesterday: 77 °F (at 12:00 AM)
Average temperature yesterday: 81 °F

Past Weeks' High & Low Weather Summary

 TemperatureHumidityPressure
High91 °F (Jan 19, 2:30 PM)100% (Jan 17, 8:00 AM)29.92 "Hg (Jan 17, 8:00 AM)
Low73 °F (Jan 27, 1:00 PM)44% (Jan 19, 4:00 PM)29.59 "Hg (Jan 28, 3:30 PM)
Average82 °F82%29.76 "Hg
* Reported Jan 16 9:30 AM — Jan 31 9:30 AM, Darwin, Weather by CustomWeather, © 2014

Note: Actual official high and low records may vary slightly from our data, if they occured in-between our weather recording intervals... More about our weather records

Advertising

Darwin weather history for previous 24 hours

 ConditionsComfort  
Time TempWeatherWind HumidityBarometerVisibility
9:30 AM
Jan 31
84 °FScattered showers. Scattered clouds.8 mph84%29.80 "HgN/A
9:00 AM79 °FScattered showers. Passing clouds.7 mph84%29.80 "HgN/A
8:30 AM84 °FScattered showers. Scattered clouds.7 mph84%29.80 "HgN/A
8:00 AM81 °FScattered clouds.No wind94%29.77 "HgN/A
7:30 AM79 °FScattered clouds.5 mph94%29.77 "HgN/A
6:30 AM77 °FPassing clouds.5 mph94%29.77 "HgN/A
6:00 AM77 °FPassing clouds.5 mph100%29.74 "HgN/A
5:30 AM77 °FPassing clouds.5 mph100%29.74 "HgN/A
5:00 AM77 °FPassing clouds.No wind100%29.74 "HgN/A
4:30 AM77 °FRain showers. Passing clouds.5 mph100%29.74 "Hg5 mi
4:00 AM77 °FPassing clouds.6 mph100%29.74 "HgN/A
3:30 AM77 °FPassing clouds.No wind100%29.74 "HgN/A
3:00 AM77 °FScattered showers. Passing clouds.6 mph100%29.74 "HgN/A
2:30 AM79 °FRain showers. Partly cloudy.6 mph94%29.77 "Hg3 mi
2:00 AM79 °FRain showers. Passing clouds.No wind94%29.77 "HgN/A
1:30 AM79 °FPassing clouds.No wind94%29.77 "HgN/A
1:00 AM79 °FPassing clouds.No wind94%29.80 "HgN/A
12:30 AM79 °FPassing clouds.3 mph94%29.80 "HgN/A
12:00 AM79 °FPassing clouds.3 mph94%29.80 "HgN/A
11:30 PM
Jan 30
79 °FLight rain. Partly cloudy.3 mph94%29.80 "HgN/A
11:00 PM79 °FPartly cloudy.5 mph94%29.83 "HgN/A
10:30 PM79 °FPassing clouds.3 mph94%29.80 "HgN/A
10:00 PM79 °FPassing clouds.3 mph94%29.80 "HgN/A
9:30 PM79 °FScattered showers. Passing clouds.5 mph94%29.80 "HgN/A
9:00 PM79 °FScattered showers. Passing clouds.6 mph89%29.80 "HgN/A
8:30 PM79 °FScattered showers. Passing clouds.7 mph89%29.77 "HgN/A
8:00 PM79 °FRain showers. Partly cloudy.10 mph94%29.77 "Hg1 mi
7:30 PM77 °FThunderstorms. Broken clouds.8 mph94%29.77 "HgN/A
6:30 PM79 °FScattered showers. More clouds than sun.10 mph89%29.74 "HgN/A
6:00 PM79 °FLight rain. Mostly cloudy.8 mph89%29.74 "HgN/A
5:30 PM79 °FOvercast.6 mph89%29.71 "HgN/A
5:00 PM79 °FScattered showers. More clouds than sun.6 mph84%29.71 "HgN/A
4:30 PM79 °FLots of rain. Broken clouds.20 mph84%29.71 "Hg3 mi
4:00 PM82 °FLots of rain. Broken clouds.15 mph79%29.71 "Hg3 mi
3:30 PM84 °FScattered showers. Partly sunny.10 mph74%29.71 "HgN/A
3:00 PM84 °FPartly sunny.10 mph74%29.71 "HgN/A
2:30 PM84 °FPartly sunny.10 mph74%29.74 "HgN/A
2:00 PM82 °FPartly sunny.8 mph79%29.74 "HgN/A
1:30 PM84 °FScattered showers. Broken clouds.9 mph66%29.74 "HgN/A
1:00 PM82 °FScattered showers. Broken clouds.10 mph79%29.77 "HgN/A
12:30 PM82 °FScattered showers. Broken clouds.16 mph79%29.77 "HgN/A
12:17 PM82 °FRain showers. Partly sunny.21 mph84%29.77 "Hg4 mi
11:30 AM88 °FScattered showers. Scattered clouds.9 mph66%29.80 "HgN/A
11:00 AM86 °FScattered clouds.7 mph70%29.80 "HgN/A
10:30 AM86 °FScattered clouds.9 mph62%29.80 "HgN/A
10:00 AM86 °FPassing clouds.12 mph66%29.80 "HgN/A
Weather by CustomWeather, © 2014

See weather overviewHow to use our weather pages